Vernal, UT

12:29 AM MDT on May 27, 2018 (GMT -0600)
Vernal

Weather History for KVEL - May, 2013

Change the Weather History Date:

Thursday, May 16, 2013

  Actual Average Record
Temperature  
Mean Temperature 65 °F 57 °F  
Max Temperature 80 °F 70 °F 87 °F (1972)
Min Temperature 50 °F 43 °F 22 °F (1955)
Degree Days  
Heating Degree Days 0 8  
Month to date heating degree days 141 173  
Since 1 July heating degree days 7485 7052  
Cooling Degree Days 0 0  
Month to date cooling degree days 8 0  
Year to date cooling degree days 8 0  
Growing Degree Days 15 (Base 50)    
Moisture  
Dew Point 38 °F    
Average Humidity 43    
Maximum Humidity 68    
Minimum Humidity 18    
Precipitation  
Precipitation T in 0.03 in 1.13 in (2016)
Month to date precipitation 0.79 0.51  
Year to date precipitation 3.31 3.03  
Sea Level Pressure  
Sea Level Pressure 29.73 in    
Wind  
Wind Speed 5 mph (SW)    
Max Wind Speed 29 mph    
Max Gust Speed 43 mph    
Visibility 10 miles    
Events Rain    
T = Trace of Precipitation, MM = Missing Value Source: NWS Daily Summary

Daily Weather History Graph

Daily Weather History Graph

Search for Another Location

Airport or City:

Astronomy

May. 16, 2013 Rise Set
Actual Time 6:00 AM MDT 8:28 PM MDT
Civil Twilight 5:29 AM MDT 9:00 PM MDT
Nautical Twilight 4:50 AM MDT 9:38 PM MDT
Astronomical Twilight 4:08 AM MDT 10:21 PM MDT
Moon 11:37 AM MDT (5/16) 12:51 AM MDT (5/16)
Length of Visible Light 15h 30m
Length of Day
14h 28m
Waxing Crescent, 36% of the Moon is Illuminated
May 16
Waxing Crescent
May 17
First Quarter
May 24
Full
May 31
Last Quarter
Jun 8
New

Hourly Weather History & Observations

Time (MDT) Temp. Dew Point Humidity Pressure Visibility Wind Dir Wind Speed Gust Speed Precip Events Conditions
12:53 AM 55.0 °F 39.9 °F 57% 29.75 in 10.0 mi WNW 4.6 mph - N/A   Clear
1:53 AM 53.1 °F 39.9 °F 61% 29.76 in 10.0 mi West 4.6 mph - N/A   Clear
2:53 AM 50.0 °F 39.9 °F 68% 29.75 in 10.0 mi West 8.1 mph - N/A   Clear
3:53 AM 50.0 °F 39.9 °F 68% 29.76 in 10.0 mi WNW 3.5 mph - N/A   Clear
4:53 AM 52.0 °F 39.9 °F 63% 29.78 in 10.0 mi Calm Calm - N/A   Partly Cloudy
5:53 AM 53.1 °F 41.0 °F 64% 29.80 in 10.0 mi Calm Calm - N/A   Clear
6:53 AM 51.1 °F 41.0 °F 68% 29.82 in 10.0 mi Calm Calm - N/A   Clear
7:53 AM 55.9 °F 42.1 °F 60% 29.83 in 10.0 mi Calm Calm - N/A   Clear
8:53 AM 59.0 °F 41.0 °F 51% 29.82 in 10.0 mi SE 3.5 mph - N/A   Clear
9:53 AM 64.0 °F 41.0 °F 43% 29.81 in 10.0 mi SE 4.6 mph - N/A   Clear
10:53 AM 66.0 °F 41.0 °F 40% 29.80 in 10.0 mi South 4.6 mph - N/A   Clear
11:53 AM 70.0 °F 41.0 °F 35% 29.78 in 10.0 mi Variable 5.8 mph - N/A   Clear
12:53 PM 73.9 °F 39.0 °F 28% 29.74 in 10.0 mi Variable 4.6 mph - N/A   Clear
1:53 PM 77.0 °F 37.9 °F 24% 29.70 in 10.0 mi Variable 4.6 mph - N/A   Clear
2:53 PM 80.1 °F 34.0 °F 19% 29.68 in 10.0 mi SW 13.8 mph 19.6 mph N/A   Clear
4:28 PM 71.6 °F 35.6 °F 27% 29.86 in 10.0 mi SSE 12.7 mph 42.6 mph 0.00 in Rain Light Rain
4:53 PM 75.0 °F 36.0 °F 24% 29.68 in 10.0 mi South 9.2 mph - 0.00 in   Partly Cloudy
5:53 PM 75.0 °F 33.1 °F 22% 29.65 in 10.0 mi Calm Calm - N/A   Partly Cloudy
6:53 PM 73.0 °F 33.1 °F 23% 29.65 in 10.0 mi West 4.6 mph 16.1 mph N/A   Overcast
7:53 PM 72.0 °F 33.1 °F 24% 29.64 in 10.0 mi SSW 12.7 mph 18.4 mph N/A   Overcast
8:53 PM 70.0 °F 33.1 °F 26% 29.64 in 10.0 mi NW 3.5 mph - N/A   Mostly Cloudy
9:53 PM 66.0 °F 37.0 °F 34% 29.64 in 10.0 mi NNE 4.6 mph - N/A   Scattered Clouds
10:53 PM 63.0 °F 39.9 °F 43% 29.64 in 10.0 mi SSW 3.5 mph - N/A   Clear
11:53 PM 61.0 °F 39.9 °F 46% 29.64 in 10.0 mi West 5.8 mph - N/A   Clear